Weather History for KOTG - December, 2012

Change the Weather History Date:

Wednesday, December 5, 2012

  Actual Average Record
Temperature  
Mean Temperature 32 °F -  
Max Temperature 50 °F 32 °F 57 °F (2001)
Min Temperature 17 °F 18 °F -13 °F (1991)
Degree Days  
Heating Degree Days 32    
Moisture  
Dew Point 17 °F    
Average Humidity 53    
Maximum Humidity 68    
Minimum Humidity 35    
Precipitation  
Precipitation 0.00 in - - ()
Sea Level Pressure  
Sea Level Pressure 30.04 in    
Wind  
Wind Speed 14 mph (SSE)    
Max Wind Speed 29 mph    
Max Gust Speed 38 mph    
Visibility 10 miles    
Events      
Averages and records for this station are not official NWS values.
T = Trace of Precipitation, MM = Missing Value Source: NWS Daily Summary

Daily Weather History Graph

Daily Weather History Graph

Search for Another Location

Airport or City:

Trip Planner

Search our weather history database for the weather conditions in past years. The results will help you decide how hot, cold, wet, or windy it might be!

Date:

Astronomy

Dec. 05, 2012 Rise Set
Actual Time 7:40 AM CST 4:45 PM CST
Civil Twilight 7:08 AM CST 5:18 PM CST
Nautical Twilight 6:32 AM CST 5:53 PM CST
Astronomical Twilight 5:57 AM CST 6:28 PM CST
Moon 11:45 PM CST (12/5) 11:56 AM CST (12/5)
Length of Visible Light 10h 09m
Length of Day
9h 04m
Waning Gibbous, 59% of the Moon is Illuminated
Dec 5
Waning Gibbous
Dec 6
Last Quarter
Dec 13
New
Dec 19
First Quarter
Dec 28
Full

Hourly Weather History & Observations

Time (CST) Temp. Windchill Dew Point Humidity Pressure Visibility Wind Dir Wind Speed Gust Speed Precip Events Conditions
12:15 AM 19.4 °F 12.8 °F 8.6 °F 63% 30.35 in 10.0 mi ENE 4.6 mph - N/A   Clear
12:35 AM 19.4 °F 10.4 °F 8.6 °F 63% 30.34 in 10.0 mi ENE 6.9 mph - N/A   Clear
12:55 AM 17.6 °F 9.3 °F 8.6 °F 68% 30.33 in 10.0 mi East 5.8 mph - N/A   Clear
1:15 AM 17.6 °F 8.2 °F 8.6 °F 68% 30.32 in 10.0 mi East 6.9 mph - N/A   Clear
1:55 AM 19.4 °F 10.4 °F 8.6 °F 63% 30.31 in 10.0 mi ESE 6.9 mph - N/A   Clear
2:15 AM 17.6 °F 10.7 °F 8.6 °F 68% 30.30 in 10.0 mi ESE 4.6 mph - N/A   Clear
2:35 AM 17.6 °F 9.3 °F 8.6 °F 68% 30.31 in 10.0 mi ESE 5.8 mph - N/A   Clear
2:55 AM 19.4 °F 9.5 °F 8.6 °F 63% 30.31 in 10.0 mi ESE 8.1 mph - N/A   Clear
3:15 AM 19.4 °F 8.6 °F 8.6 °F 63% 30.30 in 10.0 mi ESE 9.2 mph - N/A   Clear
3:35 AM 19.4 °F 8.6 °F 8.6 °F 63% 30.29 in 10.0 mi ESE 9.2 mph - N/A   Clear
3:55 AM 19.4 °F 10.4 °F 8.6 °F 63% 30.30 in 10.0 mi ESE 6.9 mph - N/A   Clear
4:15 AM 19.4 °F 9.5 °F 8.6 °F 63% 30.29 in 10.0 mi ESE 8.1 mph - N/A   Clear
4:35 AM 19.4 °F 10.4 °F 8.6 °F 63% 30.28 in 10.0 mi ESE 6.9 mph - N/A   Clear
4:55 AM 19.4 °F 10.4 °F 8.6 °F 63% 30.27 in 10.0 mi ESE 6.9 mph - N/A   Clear
5:15 AM 19.4 °F 7.2 °F 10.4 °F 68% 30.26 in 10.0 mi ESE 11.5 mph - N/A   Clear
5:35 AM 19.4 °F 9.5 °F 10.4 °F 68% 30.26 in 10.0 mi SE 8.1 mph - N/A   Clear
5:55 AM 19.4 °F 7.9 °F 10.4 °F 68% 30.25 in 10.0 mi SE 10.4 mph - N/A   Clear
6:15 AM 21.2 °F 8.3 °F 10.4 °F 63% 30.24 in 10.0 mi SE 13.8 mph - N/A   Clear
6:35 AM 21.2 °F 7.3 °F 10.4 °F 63% 30.24 in 10.0 mi SE 16.1 mph - N/A   Clear
6:55 AM 21.2 °F 8.9 °F 10.4 °F 63% 30.23 in 10.0 mi SE 12.7 mph 21.9 mph N/A   Clear
8:35 AM 23.0 °F 9.6 °F 10.4 °F 59% 30.20 in 10.0 mi SE 16.1 mph 21.9 mph N/A   Clear
8:55 AM 24.8 °F 11.1 °F 12.2 °F 59% 30.19 in 10.0 mi SE 18.4 mph - N/A   Clear
9:15 AM 26.6 °F 13.1 °F 12.2 °F 55% 30.18 in 10.0 mi SE 19.6 mph 23.0 mph N/A   Clear
9:35 AM 26.6 °F 13.1 °F 12.2 °F 55% 30.17 in 10.0 mi SSE 19.6 mph 28.8 mph N/A   Clear
9:55 AM 28.4 °F 15.1 °F 12.2 °F 51% 30.17 in 10.0 mi SSE 20.7 mph 28.8 mph N/A   Clear
10:15 AM 28.4 °F 15.4 °F 12.2 °F 51% 30.16 in 10.0 mi SSE 19.6 mph 28.8 mph N/A   Clear
10:35 AM 30.2 °F 17.4 °F 14.0 °F 51% 30.14 in 10.0 mi SSE 20.7 mph 27.6 mph N/A   Clear
10:55 AM 32.0 °F 20.5 °F 15.8 °F 51% 30.13 in 10.0 mi SSE 18.4 mph 26.5 mph N/A   Clear
11:15 AM 33.8 °F 21.9 °F 15.8 °F 48% 30.11 in 10.0 mi SSE 21.9 mph 28.8 mph N/A   Clear
11:35 AM 33.8 °F 21.3 °F 17.6 °F 52% 30.09 in 10.0 mi SSE 24.2 mph 29.9 mph N/A   Clear
11:55 AM 35.6 °F 24.0 °F 17.6 °F 48% 30.07 in 10.0 mi SSE 23.0 mph 32.2 mph N/A   Clear
12:15 PM 37.4 °F 26.9 °F 19.4 °F 48% 30.06 in 10.0 mi SSE 20.7 mph 32.2 mph N/A   Clear
12:35 PM 37.4 °F 26.4 °F 19.4 °F 48% 30.04 in 10.0 mi SSE 23.0 mph 31.1 mph N/A   Clear
12:55 PM 37.4 °F 26.1 °F 19.4 °F 48% 30.03 in 10.0 mi SSE 24.2 mph 31.1 mph N/A   Clear
1:15 PM 39.2 °F 28.3 °F 19.4 °F 45% 30.01 in 10.0 mi SSE 25.3 mph 31.1 mph N/A   Clear
1:35 PM 39.2 °F 29.8 °F 19.4 °F 45% 29.99 in 10.0 mi SSE 18.4 mph 26.5 mph N/A   Clear
1:55 PM 39.2 °F 29.6 °F 21.2 °F 49% 29.98 in 10.0 mi SSE 19.6 mph 28.8 mph N/A   Clear
2:15 PM 41.0 °F 31.9 °F 21.2 °F 45% 29.96 in 10.0 mi SSE 19.6 mph 27.6 mph N/A   Clear
2:35 PM 42.8 °F 34.0 °F 21.2 °F 42% 29.95 in 10.0 mi SSE 20.7 mph 24.2 mph N/A   Clear
2:55 PM 42.8 °F 33.8 °F 21.2 °F 42% 29.93 in 10.0 mi SSE 21.9 mph 31.1 mph N/A   Clear
3:15 PM 42.8 °F 33.5 °F 21.2 °F 42% 29.91 in 10.0 mi SSE 23.0 mph 33.4 mph N/A   Clear
3:35 PM 44.6 °F 36.4 °F 21.2 °F 39% 29.90 in 10.0 mi SSE 20.7 mph 31.1 mph N/A   Clear
3:55 PM 44.6 °F 35.9 °F 21.2 °F 39% 29.89 in 10.0 mi SSE 23.0 mph 31.1 mph N/A   Clear
4:15 PM 42.8 °F 33.8 °F 21.2 °F 42% 29.89 in 10.0 mi SSE 21.9 mph 26.5 mph N/A   Clear
4:35 PM 42.8 °F 33.8 °F 21.2 °F 42% 29.89 in 10.0 mi South 21.9 mph 26.5 mph N/A   Clear
4:55 PM 41.0 °F 31.9 °F 21.2 °F 45% 29.88 in 10.0 mi SSE 19.6 mph 25.3 mph N/A   Clear
5:15 PM 41.0 °F 31.9 °F 23.0 °F 49% 29.88 in 10.0 mi SSE 19.6 mph 24.2 mph N/A   Mostly Cloudy
5:35 PM 41.0 °F 32.2 °F 23.0 °F 49% 29.87 in 10.0 mi SSE 18.4 mph 24.2 mph N/A   Overcast
5:55 PM 41.0 °F 32.5 °F 23.0 °F 49% 29.87 in 10.0 mi SSE 17.3 mph 24.2 mph N/A   Scattered Clouds
6:15 PM 41.0 °F 31.9 °F 24.8 °F 53% 29.87 in 10.0 mi SSE 19.6 mph 25.3 mph N/A   Clear
6:35 PM 41.0 °F 31.6 °F 24.8 °F 53% 29.86 in 10.0 mi SSE 20.7 mph 32.2 mph N/A   Clear
6:55 PM 41.0 °F 31.4 °F 24.8 °F 53% 29.85 in 10.0 mi South 21.9 mph 27.6 mph N/A   Clear
7:15 PM 41.0 °F 31.6 °F 24.8 °F 53% 29.85 in 10.0 mi South 20.7 mph 27.6 mph N/A   Partly Cloudy
7:35 PM 41.0 °F 31.1 °F 24.8 °F 53% 29.84 in 10.0 mi SSE 23.0 mph 27.6 mph N/A   Partly Cloudy
7:55 PM 41.0 °F 31.4 °F 24.8 °F 53% 29.83 in 10.0 mi South 21.9 mph 27.6 mph N/A   Clear
8:15 PM 42.8 °F 33.8 °F 24.8 °F 49% 29.82 in 10.0 mi South 21.9 mph 27.6 mph N/A   Clear
8:35 PM 42.8 °F 33.8 °F 24.8 °F 49% 29.81 in 10.0 mi South 21.9 mph 26.5 mph N/A   Clear
8:55 PM 42.8 °F 33.8 °F 24.8 °F 49% 29.81 in 10.0 mi South 21.9 mph 27.6 mph N/A   Clear
9:15 PM 42.8 °F 33.8 °F 24.8 °F 49% 29.80 in 10.0 mi South 21.9 mph 27.6 mph N/A   Clear
9:35 PM 44.6 °F 35.9 °F 24.8 °F 46% 29.80 in 10.0 mi South 23.0 mph 29.9 mph N/A   Clear
9:55 PM 44.6 °F 35.9 °F 24.8 °F 46% 29.79 in 10.0 mi South 23.0 mph 29.9 mph N/A   Clear
10:15 PM 44.6 °F 36.1 °F 24.8 °F 46% 29.79 in 10.0 mi South 21.9 mph 29.9 mph N/A   Clear
10:35 PM 46.4 °F 38.5 °F 23.0 °F 40% 29.79 in 10.0 mi South 21.9 mph 28.8 mph N/A   Clear
10:55 PM 46.4 °F 38.5 °F 23.0 °F 40% 29.78 in 10.0 mi South 21.9 mph 26.5 mph N/A   Scattered Clouds
11:15 PM 46.4 °F 38.7 °F 23.0 °F 40% 29.77 in 10.0 mi South 20.7 mph 26.5 mph N/A   Mostly Cloudy
11:35 PM 48.2 °F - 23.0 °F 37% 29.77 in 10.0 mi South 25.3 mph 32.2 mph N/A   Overcast
11:55 PM 50.0 °F - 23.0 °F 35% 29.77 in 10.0 mi South 28.8 mph 38.0 mph N/A   Scattered Clouds